www.pogodaiklimat.ru

Погода и климат >> Архив погоды >> Монголия >> Хадатын


ПОГОДА в Хадатыне

  • Прогноз погоды в Хадатыне
  • Монитор погоды в Хадатыне

АРХИВ ПОГОДЫ в Хадатыне

Время (UTC), дата Ветер
(напр.,м/с)
 
Видим.   Явления Облачность Т
(С)
Тd
(С)
f
(%)
Тe
(С)
Тes
(С)
Комфортность P
(гПа)
Po
(гПа)
Тmin
(С)
Tmax
(С)
R
(мм)
R24
(мм)
S
(см)
12 10.08 штиль 0 20 км дым {туман} 8/0 600 м
[Ac As Cs]
+23.3 +17.0 68 +28 +28 душно 1004.7 921.6 +27.3
15 10.08 штиль 0 н/о {туман} 4/0
[Ac lent]
+18.1 +14.6 80 +18 +18 1007.2 922.4
18 10.08 штиль 0 н/о {туман} ясно +14.9 +12.7 87 +15 +15 1008.7 922.9
21 10.08 штиль 0 20 км дым {туман} ясно +12.8 +11.4 91 +12 +12 1008.7 922.3
00 11.08 штиль 0 20 км дым {туман} 4/0
[Ac lent]
+15.5 +13.2 86 +15 +18 1007.8 922.3 +12.3
03 11.08 штиль 0 20 км дым {туман} 5/0
[Ac lent Ci]
+22.7 +16.5 68 +27 +39 душно 1003.4 920.2
06 11.08 штиль 0 20 км дым {туман} 6/0
[Cs]
+29.3 +16.2 45 +32 +49 душно 998.5 917.5
09 11.08 штиль 0 20 км гроза, ливневой дождь 8/8 600 м
[Cb calv]
+28.3 +17.2 51 +32 +34 душно 997.6 917.0
12 11.08 Ю 3 50 км {гроза, ливн. осадки} 8/8 600 м
[Cb calv]
+18.7 +16.4 86 +20 +20 1003.8 919.5 +28.3 28
15 11.08 штиль 0 н/о 8/8 1000 м
[Sc]
+18.1 +14.6 80 +18 +18 1005.9 921.2
18 11.08 С 3 н/о 8/8 1000 м
[Sc]
+15.3 +10.0 71 +15 +15 1009.7 924.0
21 11.08 штиль 0 50 км 5/0
[Ac lent]
+13.1 +9.4 78 +13 +13 1012.4 925.8
00 12.08 штиль 0 50 км 4/0
[Ac trans]
+14.2 +9.7 74 +14 +17 1013.9 927.5 +11.8
03 12.08 штиль 0 50 км 8/5 1000 м
[Sc Ac trans]
+15.5 +8.7 64 +15 +21 1013.4 927.4
06 12.08 штиль 0 50 км 4/4 600 м
[Cu hum]
+18.5 +8.6 52 +19 +30 1011.8 926.8
09 12.08 штиль 0 50 км 5/3 600 м
[Cu med, cong Ac trans]
+19.5 +8.2 48 +20 +24 1010.0 925.4
12 12.08 штиль 0 50 км 3/0
[Ac lent]
+17.4 +10.7 65 +17 +17 1010.4 925.2 +20.9
15 12.08 штиль 0 н/о ясно +13.5 +10.6 83 +13 +13 1012.1 925.7
18 12.08 штиль 0 н/о ясно +10.4 +8.6 89 +10 +10 1012.4 925.0
21 12.08 штиль 0 50 км ясно +9.0 +7.7 92 +8 +8 1012.0 924.3
00 13.08 штиль 0 50 км 3/0
[Ac lent]
+11.0 +9.2 89 +10 +13 1010.5 923.5 +8.6
03 13.08 С 1 50 км 8/8 600 м
[Cu Sc]
+16.8 +9.7 63 +18 +21 1007.3 922.2
06 13.08 С 3 50 км в посл. час ливневой дождь {гроза} 8/8 600 м
[Cb calv]
+18.1 +13.0 72 +18 +21 1006.5 921.8
09 13.08 С 1 50 км в посл. час ливневой дождь {гроза} 8/8 600 м
[Cb calv]
+16.0 +12.5 80 +17 +18 1007.2 921.9
12 13.08 штиль 0 50 км {гроза, ливн. осадки} 6/0
[Ac lent Ci sp]
+15.8 +10.7 72 +16 +16 1007.6 922.2 +21.7 2
15 13.08 штиль 0 н/о 3/0
[Ac lent]
+13.2 +10.7 85 +13 +13 1009.6 923.3
18 13.08 С 1 н/о ясно +11.6 +9.6 88 +11 +11 1010.0 923.1
21 13.08 штиль 0 50 км 3/0
[Ac lent]
+10.1 +8.4 89 +9 +9 1010.4 923.1
00 14.08 штиль 0 20 км местами туман поземный 4/0
[Ac trans]
+11.8 +9.3 85 +11 +14 1009.9 923.1 +8.7
03 14.08 штиль 0 50 км 8/5 1000 м
[Sc Ac trans]
+16.8 +10.9 68 +17 +22 1007.6 922.6
06 14.08 штиль 0 50 км 6/4 600 м
[Cu med, cong Ac cast]
+19.7 +10.8 56 +21 +29 комфорт 1005.3 921.2
09 14.08 штиль 0 50 км 8/8 600 м
[Cu med, cong]
+21.7 +9.6 46 +23 +25 комфорт 1002.8 919.4
12 14.08 штиль 0 50 км ливневой дождь, в посл. час гроза 9/9 600 м
[Cb cap]
+16.0 +8.8 62 +16 +16 1004.3 920.2 +22.2 0.4
15 14.08 С 1 н/о {гроза, ливн. осадки} 9/9 600 м
[Cb cap]
+13.0 +9.7 80 +13 +13 1009.8 923.4
18 14.08 штиль 0 н/о {гроза, ливн. осадки} 9/9 600 м
[Cb cap]
+12.1 +8.4 78 +12 +12 1011.9 925.0
21 14.08 штиль 0 н/о 8/8 600 м
[Cb calv]
+11.5 +7.7 77 +11 +11 1014.0 926.8
00 15.08 штиль 0 50 км в посл. час ливневой дождь 8/8 600 м
[Cb calv]
+12.7 +8.0 73 +12 +13 1015.2 928.2 +11.0 0.7
03 15.08 штиль 0 50 км 3/3 600 м
[Cu med, cong]
+16.0 +8.2 60 +16 +27 1014.4 928.5
06 15.08 С 1 50 км 6/6 600 м
[Cu med, cong]
+17.6 +8.2 54 +19 +25 1013.8 928.3
09 15.08 штиль 0 50 км 8/8 600 м
[Cu med, cong]
+18.8 +7.0 46 +19 +20 1012.8 927.7
12 15.08 штиль 0 50 км 5/0
[Ac lent Ci]
+15.6 +11.1 75 +15 +15 1013.2 927.3 +20.2
15 15.08 штиль 0 н/о 5/0
[Ac lent Ci]
+10.7 +8.6 87 +10 +10 1015.4 927.8
18 15.08 штиль 0 н/о 3/0
[Ac lent]
+8.9 +7.4 90 +8 +8 1015.5 927.4
21 15.08 штиль 0 50 км 3/0
[Ac lent]
+7.8 +6.4 91 +7 +7 1016.4 927.9
00 16.08 штиль 0 50 км 8/0
[Ac trans]
+10.4 +8.6 89 +10 +12 1015.6 927.9 +7.3
03 16.08 штиль 0 50 км 3/3 600 м
[Cu hum]
+17.8 +10.7 63 +18 +29 1012.4 927.1
06 16.08 Ю 1 50 км 4/4 600 м
[Cu med, cong]
+21.2 +5.8 37 +22 +31 комфорт 1009.5 925.4
09 16.08 штиль 0 50 км 3/3 600 м
[Cu med, cong]
+22.1 +5.5 34 +23 +27 комфорт 1008.0 924.3
12 16.08 штиль 0 50 км 3/0
[Ac lent]
+17.0 +12.2 73 +17 +17 1009.3 924.1 +23.0
15 16.08 штиль 0 н/о 4/0
[Ac lent Ci]
+12.0 +9.0 82 +11 +11 1011.2 924.4
18 16.08 штиль 0 н/о 4/0
[Ac lent Ci]
+9.5 +7.5 87 +9 +9 1011.3 923.7
21 16.08 штиль 0 н/о 8/0
[Ac As Cs]
+8.7 +7.0 89 +8 +8 1011.4 923.6
00 17.08 штиль 0 50 км в посл. час дождь 9/9 1000 м
[Sc]
+10.3 +8.6 89 +10 +10 1010.1 922.9 +8.1 0.1
03 17.08 штиль 0 50 км {дождь} 9/9 1000 м
[Sc]
+16.6 +10.0 65 +17 +18 1007.0 921.9
06 17.08 штиль 0 50 км {дождь} 9/8 600 м
[Cu Sc]
+20.9 +11.8 56 +23 +25 комфорт 1003.7 920.1
09 17.08 штиль 0 50 км 8/8 600 м
[Cu Sc]
+22.9 +12.9 53 +26 +27 жарко 1001.7 918.7

 

Местоположение метеостанции Хадатын (Монголия): широта 49.45 долгота 107.20 высота над уровнем моря 762 м.

В архиве по умолчанию представлена погода в Хадатыне за последнюю неделю. Архивные данные за месяц целиком и за предыдущие месяцы, начиная с января 2011 года, Вы можете получить, выбрав интересующий диапазон дат из раскрывающегося списка и нажав кнопку "Ввод!".


*Определитесь, кто Вы:
робот инопланетянин человек

Внимание! Время в таблицах - всемирное. Для получения местного времени необходимо прибавить поправку, которая равна 8 ч.

Смотрите также архив погоды в соседних городах и на ближайших метеорологических станциях:

Погода в Улыгайин Дуганг (Монголия) (57 км)
Погода в Баруунхараа (Монголия) (102 км)
Погода в Мензе (Забайкальский край, Россия) (116 км)
Погода в Кяхте (Бурятия, Россия) (117 км)
Погода в Бичуре (Бурятия, Россия) (130 км)
Погода в Красном Чикое (Забайкальский край, Россия) (148 км)
Погода в Улан-Баторе (Монголия) (172 км)
Погода в Улан-Батор аэропорту (Монголия) (180 км)
Погода в Мухоршибири (Бурятия, Россия) (181 км)
Погода в Петропавловке (Бурятия, Россия) (188 км)

Пояснения к столбцам:

Ветер - указаны скорость ветра в м/с - средняя за 10 мин, порывы в срок и между сроками (в фигурных скобках) и направление, откуда дует ветер: С - северный, СВ - северо-восточный, В - восточный, ЮВ - юго-восточный, Ю - южный, ЮЗ - юго-западный, З - западный, СЗ - северо-западный.
Видимость - горизонтальная дальность видимости в метрах или километрах. При видимости от 1 до 10 км при отсутствии осадков обычно наблюдается дымка, при ухудшении видимости до 1 км и менее - туман. В сухую погоду видимость может ухудшаться дымом, пылью или мглою.
Явления - указаны атмосферные явления, наблюдавшиеся в срок или в последний час перед сроком; фигурными скобками обозначены явления, наблюдавшиеся между сроками (за 1-3 часа до срока); квадратными скобками обозначены град или гололедные отложения с указанием их диаметра в мм.
Облачность - указаны через наклонную черту общая и нижняя облачность в баллах и высота нижней границы облаков в метрах; квадратными скобками обозначены формы облаков: Ci - перистые, Cs - перисто-слоистые, Cc - перисто-кучевые, Ac - высококучевые, As - высокослоистые, Sc - слоисто-кучевые, Ns - слоисто-дождевые, Cu - кучевые, Cb - кучево-дождевые. Подробнее классификацию облаков см. в Атласе облаков (PDF).
T - Температура воздуха - температура, измеренная на высоте 2 м над землей.
Td - Температура точки росы - температура, при понижении до которой содержащийся в воздухе водяной пар достигнет насыщения.
f - Относительная влажность воздуха - влажноcть воздуха, измеренная на высоте 2 м над землей.
Te - Эффективная температура - температура, которую ощущает одетый по сезону человек в тени. Характеристика душности погоды. При расчете учитывается влияние влажности воздуха и скорости ветра на теплоощущения человека.
Tes - Эффективная температура на солнце - температура, которую ощущает человек, с поправкой на солнечный нагрев. Характеристика знойности погоды. Зависит от высоты солнца над горизонтом, облачности и скорости ветра. Ночью, в пасмурную погоду, а также при ветре 12 м/с и более поправка равна нулю.
P - Атмосферное давление - приведенное к уровню моря атмосферное давление.
Po - Атмосферное давление - измеренное на уровне метеостанции атмосферное давление.
Tmin - Минимальная температура - минимум температуры воздуха на высоте 2 м над землей.
Tmax - Максимальная температура - максимум температуры воздуха на высоте 2 м над землей.
R - Количество осадков - Количество выпавших осадков за период времени, мм. При наведении курсора мыши на число - период времени, за который выпало указанное количество осадков.
R24 - Количество осадков - Количество выпавших осадков за 24 часа, мм.
S - Снежный покров - Высота снежного покрова, см. При наведении курсора мыши на число - состояние снежного покрова и степень покрытия местности в баллах.